Regional Weather Roundup
Issued by NWS

Home | Current Version | Previous Version | Text Only | Print | Product List | Glossary Off
Versions: 1 2 3 4 5 6 7 8 9 10 11 12 13 14 15 16 17 18 19 20 21 22 23 24 25 26 27 28 29 30 31 32 33 34 35 36 37 38 39 40 41 42 43 44 45 46 47 48 49 50

950
ASUS43 KBIS 230710
RWRND
NORTH DAKOTA REGIONAL WEATHER ROUNDUP
NATIONAL WEATHER SERVICE EASTERN NORTH DAKOTA/GRAND FORKS ND
200 AM CDT FRI JUN 23 2017

  NOTE: "FAIR" INDICATES FEW OR NO CLOUDS BELOW 12,000 FEET WITH NO
  SIGNIFICANT WEATHER AND/OR OBSTRUCTIONS TO VISIBILITY.

NDZ001>003-009>011-017-230800-
...NORTHWEST NORTH DAKOTA...

CITY           SKY/WX    TMP DP  RH WIND       PRES   REMARKS
WILLISTON      CLOUDY    54  45  71 NW13      30.05R
MINOT          CLOUDY    56  49  77 W22G31    29.91R
MINOT AFB      CLOUDY    56  48  76 NW21G35   29.89R
$$

NDZ018>021-031>035-040>046-230800-
...SOUTHWEST NORTH DAKOTA...

CITY           SKY/WX    TMP DP  RH WIND       PRES   REMARKS
BISMARCK       CLOUDY    59  52  77 NW18G28   29.94R
DICKINSON      CLOUDY    52  45  77 NW25      30.02R
GARRISON         N/A     53  48  83 NW26G38   29.94R
HETTINGER      CLOUDY    54  44  69 NW21G28   30.07R
$$

NDZ004>008-012>016-024-026-027-054-230800-
...NORTHEAST NORTH DAKOTA...

CITY           SKY/WX    TMP DP  RH WIND       PRES   REMARKS
GRAND FORKS    FAIR      59  51  75 W12       29.69S
GRAND FORKS AF FAIR      59  50  74 W12       29.70S
DEVILS LAKE    CLOUDY    57  54  88 NW21G29   29.76R
$$

NDZ022-023-025-028>030-036>039-047>053-230800-
...SOUTHEAST NORTH DAKOTA...

CITY           SKY/WX    TMP DP  RH WIND       PRES   REMARKS
JAMESTOWN      MOCLDY    61  50  67 W22G31    29.80S
FARGO          FAIR      59  46  62 W10       29.74F
WAHPETON       FAIR      55  43  62 W13       29.77S
$$




USA.gov is the U.S. government's official web portal to all federal, state and local government web resources and services.